Weather History for New Delhi, India

Change the Weather History Date:

Monday, January 16, 2012

  Actual Average Record
Temperature  
Mean Temperature 60 °F -  
Max Temperature 66 °F 69 °F - (-1)
Min Temperature 55 °F 48 °F - (-1)
Degree Days  
Heating Degree Days 4    
Growing Degree Days 10 (Base 50)    
Moisture  
Dew Point 54 °F    
Average Humidity 80    
Maximum Humidity 100    
Minimum Humidity 64    
Precipitation  
Precipitation 0.00 in - - ()
Sea Level Pressure  
Sea Level Pressure 29.81 in    
Wind  
Wind Speed 8 mph ()    
Max Wind Speed 14 mph    
Max Gust Speed 21 mph    
Visibility 1.4 miles    
Events Fog , Rain    
Averages and records for this station are not official NWS values.
T = Trace of Precipitation, MM = Missing Value Source: Averaged Metar Reports

Daily Weather History Graph

Daily Weather History Graph

Search for Another Location

Airport:

Trip Planner

Search our weather history database for the weather conditions in past years. The results will help you decide how hot, cold, wet, or windy it might be!

Date:

Astronomy

Jan. 16, 2012 Rise Set
Actual Time 7:15 AM IST 5:47 PM IST
Civil Twilight 6:49 AM IST 6:12 PM IST
Nautical Twilight 6:20 AM IST 6:41 PM IST
Astronomical Twilight 5:52 AM IST 7:09 PM IST
Moon No Moon Rise 11:34 AM IST (1/16)
Length of Visible Light 11h 22m
Length of Day
10h 31m
Waning Gibbous, 51% of the Moon is Illuminated
Jan 16
Waning Gibbous
Jan 16
Last Quarter
Jan 23
New
Jan 31
First Quarter
Feb 8
Full

Hourly Weather History & Observations

Time (IST) Temp. Dew Point Humidity Pressure Visibility Wind Dir Wind Speed Gust Speed Precip Events Conditions
12:00 AM 59.0 °F 53.6 °F 82% 29.80 in 1.6 mi East 8.1 mph - N/A   Mostly Cloudy
12:30 AM 59.0 °F 53.6 °F 82% 29.80 in 1.6 mi ESE 8.1 mph - N/A   Mostly Cloudy
1:00 AM 59.0 °F 53.6 °F 82% 29.80 in 1.6 mi ESE 6.9 mph - N/A   Mostly Cloudy
1:30 AM 59.0 °F 53.6 °F 82% 29.80 in 1.6 mi ESE 8.1 mph - N/A   Mostly Cloudy
2:00 AM 59.0 °F 53.6 °F 82% 29.80 in 1.6 mi NE 8.1 mph - N/A   Scattered Clouds
2:30 AM 59.0 °F 53.6 °F 82% 29.77 in 1.0 mi ENE 8.1 mph - N/A   Partly Cloudy
3:30 AM 59.0 °F 53.6 °F 82% 29.77 in 0.9 mi East 9.2 mph - N/A   Partly Cloudy
4:00 AM 59.0 °F 53.6 °F 82% 29.77 in 0.9 mi ENE 9.2 mph - N/A   Partly Cloudy
4:30 AM 59.0 °F 53.6 °F 82% 29.77 in 0.9 mi East 10.4 mph - N/A Rain Rain
5:30 AM 57.2 °F 55.4 °F 94% 29.77 in 0.4 mi East 10.4 mph - N/A Rain Light Rain
6:00 AM 55.4 °F 55.4 °F 100% 29.77 in 0.4 mi East 10.4 mph - N/A Fog Shallow Fog
6:30 AM 55.4 °F 55.4 °F 100% 29.77 in 0.4 mi ESE 10.4 mph - N/A Fog Shallow Fog
7:00 AM 57.2 °F 57.2 °F 100% 29.80 in 0.4 mi SE 10.4 mph - N/A Fog Shallow Fog
8:00 AM 57.2 °F 55.4 °F 94% 29.80 in 0.9 mi ESE 13.8 mph - N/A   Mostly Cloudy
9:30 AM 59.0 °F 51.8 °F 77% 29.83 in 1.7 mi East 9.2 mph 20.7 mph N/A   Mostly Cloudy
10:00 AM 60.8 °F 51.8 °F 72% 29.83 in 1.4 mi East 9.2 mph 20.7 mph N/A   Mostly Cloudy
10:30 AM 60.8 °F 55.4 °F 82% 29.86 in 1.3 mi ESE 11.5 mph - N/A   Mostly Cloudy
11:00 AM 60.8 °F 53.6 °F 77% 29.86 in 1.3 mi SE 13.8 mph - N/A   Mostly Cloudy
11:30 AM 62.6 °F 53.6 °F 72% 29.86 in 1.3 mi SE 12.7 mph - N/A   Mostly Cloudy
12:00 PM 64.4 °F 53.6 °F 68% 29.83 in 1.5 mi SE 11.5 mph - N/A   Haze
12:30 PM 64.4 °F 53.6 °F 68% 29.83 in 1.7 mi SE 12.7 mph - N/A   Haze
1:00 PM 66.2 °F 53.6 °F 64% 29.80 in 1.8 mi ESE 13.8 mph - N/A   Haze
2:00 PM 64.4 °F 51.8 °F 64% 29.80 in 2.5 mi ESE 13.8 mph - N/A   Haze
2:30 PM 66.2 °F 53.6 °F 64% 29.80 in 2.5 mi SE 11.5 mph - N/A   Haze
3:00 PM 66.2 °F 55.4 °F 68% 29.77 in 2.2 mi SE 6.9 mph - N/A   Haze
3:30 PM 66.2 °F 55.4 °F 68% 29.80 in 2.2 mi ESE 4.6 mph - N/A   Haze
4:00 PM 66.2 °F 53.6 °F 64% 29.80 in 2.5 mi South 5.8 mph - N/A   Haze
4:30 PM 66.2 °F 55.4 °F 68% 29.80 in 2.5 mi SSE 4.6 mph - N/A   Haze
5:00 PM 64.4 °F 55.4 °F 73% 29.80 in 2.5 mi SSE 8.1 mph - N/A   Haze
5:30 PM 64.4 °F 53.6 °F 68% 29.80 in 2.5 mi ESE 8.1 mph - N/A   Haze
6:00 PM 62.6 °F 53.6 °F 72% 29.80 in 2.2 mi ESE 6.9 mph - N/A   Haze
6:30 PM 62.6 °F 55.4 °F 77% 29.80 in 2.2 mi SE 6.9 mph - N/A   Scattered Clouds
7:00 PM 60.8 °F 55.4 °F 82% 29.80 in - ESE 8.1 mph - N/A   Scattered Clouds
8:00 PM 60.8 °F 57.2 °F 88% 29.83 in 1.6 mi WSW 6.9 mph - N/A   Scattered Clouds
8:30 PM 59.0 °F 57.2 °F 94% 29.83 in 1.1 mi West 8.1 mph - N/A   Scattered Clouds
9:30 PM 57.2 °F 55.4 °F 94% 29.86 in 0.8 mi NW 10.4 mph - N/A   Scattered Clouds
10:00 PM 57.2 °F 55.4 °F 94% 29.86 in 0.8 mi NW 8.1 mph - N/A   Scattered Clouds
10:30 PM 57.2 °F 53.6 °F 88% 29.86 in 0.7 mi WNW 6.9 mph - N/A   Scattered Clouds
11:00 PM 57.2 °F 53.6 °F 88% 29.86 in 0.7 mi NW 8.1 mph - N/A   Scattered Clouds
11:30 PM 55.4 °F 53.6 °F 94% 29.86 in 0.7 mi WNW 6.9 mph - N/A   Scattered Clouds